Starlink 5145

operational
NORAD ID: 54008 Int'l Des: 2022-125 Owner: SPXS Country: US Constellation: starlink
LEOCIRCULAR

关于 Starlink 5145

正在加载描述...

实时位置

正在加载3D地球...

即将过境

高度历史

Altitude vs Time

uPlot chart will show altitude changes over time

两行轨道根数

1 54008U 22125AW 26061.63937027 -.00002339 00000-0 -12890-3 0 9993
2 54008 53.2159 235.4132 0001167 83.8913 276.2212 15.08841650188547
Epoch: Mar 2, 2026 • Age: 36 hours

当前状态

高度 545.2 km
速度 7.60 km/s
星下点 51.89°N, 43.73°W
发射日期 Oct 5, 2022
运行时间 3.4 years
类型 internet

技术详情

分类 Payload
质量 305.00 kg
干质量 290.00 kg
总质量 305.00 kg
长度 0.20 m
直径 2.80 m
跨度 9.00 m
形状 Box + pan
制造商 SPXS
平台类型 Starlink
阶段状态 In Orbit
所有者/国家 SPXS/US

大型星座

Loading constellations...